Theta_e
309 311 310 306 301 308 301 303 298 301 307 312 314 315 318 321 328 334 340 341 340 337 333 341 348 351 354 358 362 362 362 364
309 311 310 308 309 302 302 294 294 297 302 304 310 313 317 322 331 341 344 343 340 338 337 341 348 351 354 357 360 361 362 364
311 307 306 306 304 305 304 302 296 296 300 313 313 315 320 328 338 343 345 345 341 342 343 346 348 351 353 356 359 361 363 363
305 311 312 310 307 307 301 300 303 302 301 313 316 320 331 334 341 344 343 347 347 346 347 347 348 352 353 358 359 361 364 364
302 307 311 308 309 310 312 311 304 299 301 315 323 326 335 337 342 342 342 340 343 349 350 350 352 354 355 358 359 361 363 363
299 302 307 305 307 310 310 304 304 305 305 310 320 326 331 335 337 341 344 342 341 343 347 351 353 354 354 355 356 360 360 361
306 307 307 306 306 306 307 308 306 307 308 312 323 323 327 330 333 336 340 341 346 342 342 344 345 347 345 347 349 352 351 348
303 306 306 304 306 307 308 309 310 312 312 323 324 328 328 332 335 335 334 337 341 344 340 335 339 343 349 351 352 352 347 350
299 305 305 301 305 308 310 312 313 309 318 323 323 324 326 328 331 332 333 334 333 338 338 339 339 342 345 348 347 342 347 351
299 303 295 307 315 312 310 314 317 317 319 321 321 324 327 329 329 330 331 333 333 333 335 338 336 334 336 338 336 341 345 350
299 299 303 305 313 312 309 310 317 317 319 319 324 324 325 329 330 331 333 334 335 335 336 337 336 336 339 338 336 338 337 341
303 297 294 310 314 319 319 306 315 317 318 318 322 317 323 330 330 329 333 334 335 336 337 336 337 339 338 336 336 333 335 340
303 300 305 313 318 320 302 304 316 318 318 319 316 323 328 329 331 332 331 332 332 331 330 333 337 338 334 333 331 335 337 334
306 301 298 316 316 310 313 317 319 320 323 322 324 324 326 326 327 327 329 330 333 332 331 332 335 335 332 327 327 329 330 328
306 305 316 318 318 319 320 318 318 319 324 324 323 323 326 326 326 325 325 328 328 329 327 329 331 333 330 329 325 325 325 327
308 313 315 317 320 320 321 320 322 325 324 324 323 324 324 325 324 324 325 327 327 328 327 327 329 329 328 329 328 326 325 326
304 313 316 317 319 319 320 323 324 327 327 323 321 320 321 323 324 325 323 325 326 327 327 327 329 330 330 330 328 327 326 326
301 314 317 318 322 321 320 321 323 322 319 316 316 316 320 319 321 320 320 322 322 325 326 326 326 327 328 331 330 329 328 326
313 320 320 321 321 322 321 322 321 320 319 317 318 318 317 319 322 319 325 325 323 323 324 328 328 327 328 329 327 326 326 326
Wind_Speed
8 12 11 7 6 10 10 12 11 14 24 17 14 12 7 11 10 10 11 13 16 16 13 16 21 24 24 22 21 21 20 16
6 6 10 11 4 9 7 11 14 9 18 14 14 17 10 14 11 11 10 11 11 11 12 13 18 19 22 21 21 21 20 17
9 8 9 8 12 11 14 9 16 11 11 11 12 10 13 10 11 11 10 9 6 3 6 9 13 16 17 18 20 20 18 18
18 3 5 6 5 9 10 12 14 15 16 10 0 6 7 8 8 9 6 11 5 5 8 10 13 12 14 14 15 14 14 15
15 12 9 4 3 7 9 10 16 17 13 4 3 2 7 9 10 5 5 7 8 3 7 9 11 12 13 14 13 13 13 14
15 18 13 10 7 5 9 11 16 13 16 18 9 10 10 10 9 11 6 8 7 6 6 7 8 9 9 8 11 11 12 13
15 17 17 17 15 15 13 13 13 14 17 19 10 10 10 7 5 8 10 9 10 11 8 9 9 10 14 12 13 12 10 9
16 20 22 14 16 12 14 13 13 15 17 8 4 5 6 5 10 9 8 8 8 15 10 9 12 8 11 9 13 15 11 12
15 16 18 15 17 7 8 7 10 14 11 7 3 5 10 10 10 13 14 10 10 12 18 6 9 10 11 10 9 5 4 11
13 14 17 5 5 5 4 2 6 6 6 4 4 5 7 10 10 9 10 13 11 11 10 6 7 1 14 5 6 8 4 5
11 13 15 11 6 6 6 3 8 9 7 1 4 3 9 8 7 8 11 10 7 6 6 7 9 11 9 5 6 4 8 9
11 10 16 10 5 4 9 6 11 12 7 6 9 4 7 6 5 4 6 8 8 8 9 10 9 9 13 14 15 14 10 10
11 11 5 8 9 6 2 5 9 7 7 6 5 7 6 3 8 6 9 7 8 9 8 8 7 10 14 13 13 10 12 11
4 5 6 13 5 5 4 3 5 8 12 6 4 2 3 7 6 5 8 6 7 8 9 9 8 8 11 13 8 12 13 9
7 8 7 5 5 5 4 5 5 7 6 4 8 4 6 8 6 7 5 6 7 9 11 10 10 10 10 10 8 10 9 9
12 6 9 5 5 4 3 5 4 5 6 10 9 9 10 8 7 6 6 7 7 8 10 10 10 10 9 10 11 10 6 5
7 10 4 5 5 0 1 1 5 8 11 11 8 9 9 9 8 7 7 6 7 7 8 9 7 8 9 8 6 6 5 4
6 5 5 5 6 6 7 7 9 9 10 8 9 9 8 6 6 4 6 7 8 6 7 6 6 7 7 7 7 5 4 1
6 4 4 6 2 3 7 8 7 9 10 11 10 10 9 7 5 2 5 7 7 6 2 2 3 4 3 4 3 3 5 5
Wind_Direction
266 253 240 137 235 307 247 262 272 212 230 268 254 247 50 345 339 328 323 300 287 280 240 201 196 195 186 180 187 187 191 186
311 278 226 263 178 212 190 256 247 236 273 281 280 280 336 321 342 339 338 318 299 272 237 198 194 189 183 184 187 187 187 185
268 231 295 211 219 242 273 217 257 270 257 256 253 319 316 330 353 350 340 339 334 257 161 180 183 182 183 182 185 183 183 182
297 338 284 271 312 296 272 230 241 272 280 303 278 287 336 349 356 8 349 353 20 111 142 154 156 159 174 174 180 186 185 180
263 189 198 251 340 299 269 255 266 280 279 159 120 209 358 358 1 26 37 47 357 106 128 144 141 153 159 168 171 179 173 180
290 322 325 295 285 276 279 285 294 279 278 272 38 1 356 351 358 350 70 95 70 43 64 101 112 121 120 144 149 160 168 173
280 282 287 285 286 284 265 289 278 300 303 299 26 351 344 347 5 29 35 57 85 74 78 70 91 91 101 102 87 95 88 78
283 277 272 274 272 271 276 273 276 276 283 35 23 302 56 16 58 73 66 55 82 102 96 93 93 91 97 106 121 121 111 104
272 286 286 262 265 264 295 265 325 287 6 351 22 68 28 17 34 46 57 57 23 19 77 55 45 69 83 81 107 133 132 141
268 272 267 301 55 354 315 46 332 337 330 14 36 23 0 344 350 35 52 46 28 24 43 27 75 13 64 360 343 94 335 265
262 246 260 219 69 350 354 145 4 358 0 43 325 332 75 15 8 21 39 65 77 73 88 62 60 59 99 102 40 17 211 238
276 275 261 57 22 354 297 267 7 5 344 326 328 17 82 10 7 54 64 54 68 57 67 68 85 83 69 49 47 41 19 348
255 247 114 7 347 290 239 326 344 313 321 288 311 3 38 6 58 67 67 53 72 71 71 66 76 84 83 70 50 44 43 25
289 282 235 5 291 337 45 275 310 313 305 309 292 104 144 95 78 59 68 61 59 66 58 46 44 74 80 80 72 50 43 30
327 327 0 333 343 355 317 341 320 296 324 11 109 136 65 85 93 100 109 83 68 76 73 58 54 46 64 72 64 70 44 18
324 20 329 326 70 188 72 15 284 271 82 68 58 47 66 79 79 72 69 77 73 74 73 67 59 61 53 39 44 51 40 36
324 306 289 79 62 52 298 77 65 72 91 93 86 65 67 74 59 67 88 57 74 77 73 66 58 60 53 49 45 44 9 358
304 259 268 79 83 64 114 103 85 89 89 72 89 93 57 71 81 88 59 47 31 36 90 77 61 49 34 24 21 359 262 9
279 268 179 125 135 72 87 106 101 96 98 98 102 93 79 43 34 50 118 126 148 152 174 88 74 85 68 31 17 346 322 340